This is the latest recevied weather packets stored in our database for station/object KC5DAQ-29. If no packets are shown the sender has not sent any weather packets the latest 10 day(s).
| Time | Temp. | Humidity | Pressure | Rain* | Wind** | Luminosity | Snow |
|---|---|---|---|---|---|---|---|
| 1777666983 | 16.11° C | 100% | 1007.8 hPa | 2.29 mm | - | 35 W/m² | - |
| 1777666923 | 16.11° C | 100% | 1007.8 hPa | 2.29 mm | - | 35 W/m² | - |
| 1777666863 | 16.11° C | 100% | 1007.6 hPa | 2.54 mm | - | 35 W/m² | - |
| 1777666804 | 16.11° C | 100% | 1007.4 hPa | 2.54 mm | - | 35 W/m² | - |
| 1777666742 | 16.11° C | 100% | 1007.3 hPa | 2.54 mm | - | 35 W/m² | - |
| 1777666683 | 16.11° C | 100% | 1007.3 hPa | 3.3 mm | - | 37 W/m² | - |
| 1777666624 | 16.11° C | 100% | 1007.3 hPa | 3.3 mm | - | 18 W/m² | - |
| 1777666564 | 16.11° C | 100% | 1007.5 hPa | 3.3 mm | - | 18 W/m² | - |
| 1777666504 | 16.11° C | 100% | 1007.6 hPa | 3.3 mm | - | 18 W/m² | - |
| 1777666443 | 16.11° C | 100% | 1007.6 hPa | 3.3 mm | - | 19 W/m² | - |
| 1777666383 | 16.11° C | 100% | 1007.4 hPa | 3.3 mm | - | 19 W/m² | - |
| 1777666323 | 16.67° C | 100% | 1007.2 hPa | 3.3 mm | - | 19 W/m² | - |
| 1777666264 | 16.67° C | 100% | 1007.1 hPa | 3.3 mm | - | 19 W/m² | - |
| 1777666184 | 16.67° C | 100% | 1007.1 hPa | 3.56 mm | - | 19 W/m² | - |
| 1777666124 | 16.67° C | 100% | 1007.1 hPa | 3.56 mm | - | 19 W/m² | - |
| 1777666062 | 16.67° C | 100% | 1007.1 hPa | 3.81 mm | - | 23 W/m² | - |
| 1777666004 | 16.67° C | 100% | 1006.9 hPa | 3.56 mm | - | 23 W/m² | - |
| 1777665942 | 16.67° C | 100% | 1006.6 hPa | 3.56 mm | - | 28 W/m² | - |
| 1777665884 | 16.67° C | 100% | 1006.5 hPa | 3.81 mm | - | 30 W/m² | - |
| 1777665823 | 16.67° C | 100% | 1006.5 hPa | 3.81 mm | - | 26 W/m² | - |
| 1777665764 | 16.67° C | 100% | 1006.8 hPa | 4.06 mm | - | 21 W/m² | - |
| 1777665704 | 16.67° C | 100% | 1007 hPa | 4.06 mm | - | 21 W/m² | - |
| 1777665644 | 16.67° C | 100% | 1007.2 hPa | 4.57 mm | - | 19 W/m² | - |
| 1777665583 | 16.67° C | 100% | 1007.4 hPa | 4.57 mm | - | 18 W/m² | - |
| 1777665523 | 16.67° C | 100% | 1007.4 hPa | 4.32 mm | - | 25 W/m² | - |
* Rain latest hour (hover to see other rain measurements)
** Current wind speed in m/s (hover to see current wind gust speed)